星链-6242 (STARLINK-6242 )

导读 | 豆包AI

STARLINK-6242是美国太空探索技术公司星链星座的成员,于2023年5月4日发射入轨。它承载了星链网络的通信任务,依托低轨卫星星座架构,为全球范围内用户提供高速互联网接入服务,覆盖偏远、基础设施匮乏区域,推进全球互联网络覆盖,也是 SpaceX 星链组网部署进程中的一环。

基本信息
目录编号:
56424
目录名称:
STARLINK-6242
国际标识:
2023-061BC
轨道中心:
EARTH
卫星名称:
星链-6242
卫星全名:
星链-6242 (STARLINK-6242 )
卫星状态:
在轨 (已飞行1092 天)
发射日期:
2023-05-04 UTC
国别 :
美国 (US)
星等 :
--
轨道信息
数据来源 国际轨道数据
星历时间: 2026-04-30T06:00:02+0800
9小时前
查看轨道信息
半长轴: 6863.697km
偏心率: 0.0002129
轨道倾角: 43.000°
近地点辐角 283.042°
升交点赤经 250.241°
平近点角 100.206°
近地点: 484.098km
远地点: 487.022km
周期: 94.318分钟
每日圈数: 15.267419
详细信息
固有亮度:
5
最大亮度:
2.5
卫星平台:
Starlink v1.5
覆盖范围:
全球
运营商:
太空探索技术公司
运营商所在国:
美国
制造商(研发单位):
太空探索技术公司
制造商所在国:
美国
使用方式:
暂无
卫星简介
星链(Starlink)计划是由太空探索技术公司(SpaceX)提出的一个巨型低轨卫星互联网星座项目,计划在2019年至2024年间在太空搭建由约1.2万颗卫星组成的“星链”网络,其中1584颗将部署在地球上空550千米处的近地轨道,并从2020年开始工作。该卫星仍在工作。
2D轨道图
3D轨道图
轨道高度分析图
轨道倾角分析图
轨道综合分析图
查看轨道综合分析图